Location: Fauquembergues
(50.6005°N, 2.0987°E)
Time: 01:23:46
(UTC+00:00)

Meteor 1-19 Rocket - Visible Passes

Search period start: 24 October 2020 00:00
Search period end: 03 November 2020 00:00
Orbit: 810 x 925 km, 81.2° (Epoch: 23 October)

Date Brightness Start Highest point End Pass type
(mag) Time Alt. Az. Time Alt. Az. Time Alt. Az.
24 Oct 7.0 01:11:51 13° NNE 01:11:51 13° NNE 01:12:31 10° NNE visible
24 Oct 6.6 02:54:14 13° NNW 02:54:14 13° NNW 02:55:06 10° N visible
25 Oct 7.1 01:05:09 12° NNE 01:05:09 12° NNE 01:05:35 10° NNE visible
25 Oct 6.7 02:47:31 12° NNW 02:47:31 12° NNW 02:48:09 10° N visible
26 Oct 7.2 00:58:25 11° NNE 00:58:25 11° NNE 00:58:38 10° NNE visible
26 Oct 6.8 02:40:48 11° NNW 02:40:48 11° NNW 02:41:12 10° N visible
27 Oct 7.2 00:51:41 10° NNE 00:51:41 10° NNE 00:51:42 10° NNE visible
27 Oct 6.9 02:34:04 11° N 02:34:04 11° N 02:34:14 10° N visible
